Wind_Speed
21 21 22 22 22 22 23 23 23 23 23 23 23 23 23 23 23 23 23 23 24 24 24 25 26 26 27 27 28 28 28 29 29 29 29 28 28 28 29 28 27 27 26 26 26 24 23 22 21 21 20 19 19 19 18 18 18 18 17 17 14 12 10 5 7 8 8 14 21 28 32 32 29 25 26 30 27 21 21 25 29 33 33 32 32 31 28 25
22 22 22 23 23 23 23 23 23 24 24 24 24 24 23 23 23 23 23 23 23 24 24 25 25 26 27 27 28 28 28 29 29 29 29 28 28 28 28 28 27 27 27 27 26 25 24 23 22 21 20 19 20 20 19 19 19 17 17 16 12 9 8 7 10 8 11 20 25 32 35 34 26 15 19 23 17 15 19 22 26 31 31 30 30 28 24 23
23 23 23 24 24 24 24 24 24 24 24 24 24 24 24 24 24 24 23 23 23 23 24 25 25 26 27 27 28 28 28 28 29 29 28 28 28 28 27 28 28 28 28 28 27 26 24 23 22 21 21 20 20 20 20 19 18 17 17 14 9 11 11 14 17 13 17 26 29 32 32 33 26 19 24 23 17 18 20 22 25 28 27 28 30 27 26 28
24 24 24 25 25 25 25 25 25 24 24 25 25 25 25 24 24 24 23 23 23 23 24 25 25 26 27 27 27 28 28 28 28 28 28 28 28 27 27 28 28 28 28 28 26 26 25 24 23 22 22 21 20 20 20 19 17 15 17 13 10 15 17 21 24 22 24 30 30 25 24 28 28 28 29 23 18 18 20 23 24 25 25 27 29 28 30 31
25 25 25 25 25 25 25 26 25 25 25 25 25 25 25 25 24 23 23 22 23 23 24 25 25 26 26 27 27 27 27 27 28 28 28 28 28 28 28 28 28 28 28 27 26 26 25 25 24 23 22 21 21 20 19 19 18 16 15 14 14 17 20 23 24 25 29 27 22 16 16 23 28 28 24 23 23 20 21 22 21 24 26 26 25 24 25 26
25 25 25 25 25 25 25 25 25 25 25 25 25 25 25 24 24 23 22 22 22 23 24 24 24 25 25 26 26 26 26 26 26 27 27 27 28 28 28 28 28 28 28 27 27 26 26 25 24 23 22 22 21 20 20 20 20 18 16 16 17 19 20 22 23 28 29 20 15 16 17 21 22 18 18 23 25 21 22 21 20 25 27 26 21 16 18 20
26 26 25 25 25 25 25 25 25 25 25 25 25 25 24 24 23 22 21 21 22 22 23 23 23 23 24 24 25 25 25 25 25 26 26 26 26 27 27 28 28 28 28 28 27 27 27 26 25 24 23 23 22 22 22 22 22 20 19 19 19 21 23 23 23 27 24 14 11 15 17 18 17 15 17 23 24 22 22 19 21 26 27 27 23 19 22 21
26 26 25 25 25 25 24 24 24 25 25 25 24 24 23 23 22 21 21 21 21 21 21 21 21 21 22 22 23 23 23 24 24 25 25 25 25 25 26 27 28 28 28 28 28 28 27 27 27 26 25 25 24 25 25 24 24 22 23 22 21 23 25 24 24 24 20 14 13 14 15 16 16 17 19 21 24 25 21 17 19 23 24 26 24 23 24 24
26 26 25 25 24 24 24 24 24 24 24 24 23 23 22 22 21 20 20 19 19 19 19 18 19 19 20 20 21 20 20 22 23 23 24 24 24 24 25 25 27 28 28 28 28 28 28 28 28 27 27 27 27 28 27 25 25 24 25 23 22 23 23 24 25 23 19 17 16 14 14 15 16 16 16 20 25 26 20 18 19 20 22 24 24 23 23 23
26 25 25 24 24 24 23 23 23 23 23 23 23 22 21 21 20 19 19 18 17 17 16 16 16 17 18 18 18 18 18 20 21 21 22 23 23 23 23 24 25 26 27 28 28 28 29 28 29 28 28 29 28 27 26 25 25 25 25 22 22 23 23 25 23 20 20 19 17 14 14 17 16 14 15 21 26 25 21 19 20 20 22 24 23 21 21 20
25 25 24 24 23 23 23 23 22 22 23 22 21 21 20 20 19 19 17 16 15 15 14 14 14 15 15 16 16 15 15 17 19 19 20 21 22 22 22 23 23 25 26 26 27 27 28 28 28 27 27 27 26 26 26 26 25 23 24 23 22 22 23 22 19 18 19 19 17 15 18 18 15 13 16 21 25 23 22 21 20 20 21 22 20 18 17 16
24 24 24 23 23 23 23 22 22 22 22 21 21 20 20 19 18 18 16 15 15 14 13 12 13 13 13 14 14 13 13 15 16 16 17 18 19 19 20 21 22 23 23 24 25 25 25 25 25 24 26 26 25 26 26 25 23 22 24 22 18 19 20 19 19 19 18 18 19 17 19 18 14 14 18 22 23 22 23 24 24 23 22 20 17 15 15 15
23 23 23 23 23 23 22 22 22 22 21 20 20 20 19 18 18 17 16 15 15 14 13 12 11 10 11 11 11 11 12 13 13 13 14 15 15 16 17 18 18 19 19 20 20 21 22 21 21 22 23 21 22 23 22 21 20 20 21 18 16 17 16 16 18 18 17 20 21 18 18 18 16 18 22 24 21 20 24 27 27 24 23 22 17 13 14 14
22 22 23 23 23 22 22 22 21 21 21 20 20 19 19 18 17 16 15 15 15 14 13 12 11 10 9 9 9 10 10 11 11 11 12 12 13 14 15 15 15 16 16 16 16 16 18 18 18 19 17 16 19 19 17 16 15 15 16 15 14 13 11 15 19 15 15 21 23 18 17 19 17 19 25 25 20 18 19 22 25 23 23 23 18 15 12 8
22 22 22 22 22 22 22 21 21 20 20 20 20 19 18 17 17 16 15 15 15 14 14 13 12 11 10 9 8 8 9 10 10 11 11 11 12 12 13 13 13 14 14 15 15 15 16 16 17 17 16 17 17 15 14 14 12 12 12 10 9 8 10 17 20 13 10 19 25 18 15 17 17 19 25 24 20 16 15 21 26 24 23 22 18 16 12 8
21 21 21 21 21 21 21 21 20 20 20 20 19 19 18 18 17 16 16 15 15 15 15 14 13 12 12 11 9 9 8 9 9 10 10 11 11 11 12 12 12 13 14 14 15 15 15 15 15 15 15 15 14 14 14 12 10 10 10 7 7 10 14 13 13 10 7 15 23 17 12 12 12 17 23 24 22 18 17 22 26 24 22 22 19 16 14 13
21 21 20 20 20 20 20 20 20 20 20 19 19 19 19 19 18 17 16 16 16 15 15 15 14 14 14 12 11 11 9 9 9 9 9 10 10 11 11 12 12 12 13 13 13 14 14 14 14 14 14 13 12 12 11 10 11 11 9 8 11 11 13 7 8 10 9 11 18 16 10 13 15 18 22 25 25 21 18 20 24 26 25 25 23 20 19 18
19 20 20 19 19 19 19 19 19 20 20 19 19 19 20 20 19 18 17 16 16 16 17 16 16 16 16 14 13 12 10 10 10 10 9 9 10 10 11 11 12 12 12 13 13 13 13 13 13 12 12 12 10 7 9 14 14 12 9 10 13 6 4 4 9 14 14 13 16 11 13 20 21 20 19 23 25 23 22 22 24 26 27 27 25 25 24 20
18 19 19 19 19 19 19 19 19 19 19 19 19 19 20 20 20 19 18 17 18 17 17 16 17 18 17 15 14 12 11 12 11 10 10 10 10 10 11 11 12 12 12 12 13 13 12 12 12 12 12 12 11 12 14 17 14 12 10 12 19 11 3 5 11 16 15 11 13 6 15 22 22 18 15 21 24 23 23 24 25 25 25 27 27 28 27 21
17 18 18 18 18 18 18 18 19 19 19 19 19 19 20 21 20 20 19 19 19 18 17 16 18 18 17 17 14 12 14 14 12 11 11 11 11 11 11 12 12 12 13 13 13 12 12 11 11 12 12 12 13 14 15 16 14 14 13 13 18 14 9 10 11 16 13 9 12 10 8 17 19 13 14 20 22 22 22 23 26 26 24 27 28 28 26 22
17 18 18 18 18 18 18 18 18 18 18 18 19 19 20 21 21 20 20 20 19 18 17 17 18 18 18 17 14 13 15 15 14 13 12 12 12 12 12 11 12 13 13 13 13 12 12 12 11 11 11 12 14 14 11 12 14 16 19 17 13 14 13 14 14 17 19 15 15 15 12 14 18 13 14 20 22 23 25 25 23 23 22 24 26 25 25 24
18 18 18 19 18 17 17 18 18 18 18 18 18 19 19 20 20 20 21 20 19 18 17 17 18 18 18 18 15 15 16 16 16 14 12 13 14 13 12 12 13 13 13 13 12 12 13 13 13 13 13 13 13 12 11 13 16 18 24 21 15 18 17 13 17 21 24 22 18 18 17 15 21 20 17 20 24 25 27 27 24 24 24 22 23 24 24 25
18 18 18 18 19 19 18 18 18 19 19 19 18 18 18 19 20 20 20 19 19 18 17 17 18 18 17 18 17 15 17 18 17 15 13 14 16 14 13 13 13 14 13 14 13 12 13 14 15 15 14 13 13 13 14 15 18 20 25 25 18 19 19 9 12 21 24 25 22 20 18 15 17 18 18 20 26 26 26 29 29 26 24 24 24 24 22 23
17 17 17 17 18 19 19 18 18 18 19 19 19 19 18 19 19 20 19 19 19 18 18 18 18 17 18 19 18 15 18 19 17 17 15 16 17 14 13 14 14 15 14 14 15 12 13 16 17 16 15 13 14 16 15 14 17 20 24 27 22 20 21 13 8 16 20 24 25 21 19 17 15 17 19 21 27 30 29 32 32 27 25 26 26 24 22 22
17 17 17 17 17 17 18 18 18 18 17 17 18 19 19 20 20 21 20 20 20 19 20 19 17 18 20 20 17 17 20 18 18 19 17 18 19 15 15 16 16 15 14 14 14 12 13 16 17 16 16 14 12 13 16 15 17 19 21 24 23 21 22 19 15 17 19 24 25 23 23 21 18 20 20 17 21 30 33 32 29 26 24 21 21 22 22 22
18 17 17 17 17 17 17 18 18 18 17 16 17 17 18 19 20 21 21 21 21 21 21 20 18 19 20 19 18 19 20 17 20 22 19 17 17 17 16 16 15 14 14 15 13 12 13 17 18 17 17 16 11 11 15 17 17 19 20 21 23 24 24 24 21 22 24 26 26 24 24 21 18 19 20 17 18 22 25 25 22 25 25 20 19 21 22 23
20 19 18 17 17 18 18 18 18 18 18 17 17 17 18 19 20 21 22 22 21 21 21 19 18 17 19 19 17 17 17 17 22 23 20 16 16 17 15 14 14 13 14 14 11 12 15 18 19 17 16 15 14 13 15 17 18 18 19 21 21 24 27 26 24 25 28 27 24 22 22 20 18 17 18 18 17 17 20 21 22 25 27 25 23 22 22 23
20 20 20 19 19 19 19 19 19 18 19 19 18 18 19 20 20 21 23 22 21 21 20 19 16 15 18 20 15 13 15 18 20 20 18 15 15 16 14 14 14 15 18 17 13 15 17 18 19 17 16 16 14 13 15 18 18 18 20 21 22 24 26 27 27 28 29 27 23 21 21 22 19 16 16 17 19 19 20 22 25 27 26 25 22 22 25 24
20 20 21 21 21 21 21 21 20 20 20 19 18 19 19 19 20 21 21 20 19 19 20 19 17 17 21 21 15 14 17 16 17 20 19 15 15 15 14 15 15 15 20 20 17 18 19 21 21 19 17 14 13 14 14 16 17 19 21 21 23 26 25 26 28 29 29 27 24 21 21 23 21 17 15 17 20 19 19 22 27 28 27 24 20 20 25 25
21 21 21 21 21 22 22 22 23 22 22 21 20 19 18 17 18 18 18 17 15 17 19 18 17 18 22 22 17 17 19 16 16 22 22 17 16 15 14 16 15 14 18 18 16 16 18 20 20 20 17 12 14 18 18 16 15 17 20 20 24 26 23 23 24 25 28 28 26 22 20 23 24 20 15 17 21 21 20 25 29 29 26 25 23 21 24 25
22 22 22 22 22 22 22 22 23 23 22 22 20 19 17 16 17 16 15 15 14 16 18 15 15 18 19 20 18 18 19 15 16 23 23 18 15 16 17 17 16 15 17 17 14 12 16 18 16 16 15 12 17 20 20 20 17 16 19 19 21 22 21 22 20 21 26 27 26 23 20 21 24 24 18 16 21 22 22 27 31 29 26 24 23 23 23 23
23 23 23 23 23 22 23 23 23 22 22 21 20 19 18 18 17 14 13 15 13 15 16 14 15 17 18 19 17 16 17 16 18 22 21 17 15 16 17 16 16 16 15 15 13 13 16 19 17 15 14 16 19 20 21 21 17 16 19 19 18 17 19 20 20 23 26 25 24 22 21 22 24 24 19 18 23 25 26 29 31 30 29 25 23 23 23 23
25 24 24 24 24 24 24 24 24 24 23 23 22 21 21 20 17 13 14 16 13 12 11 9 10 10 12 14 12 13 15 16 20 21 18 14 13 14 16 16 17 14 14 15 15 16 16 16 17 15 12 14 18 20 20 16 11 13 17 19 18 17 19 20 22 24 26 24 22 20 22 24 22 20 17 19 26 27 27 30 31 30 29 26 22 22 23 24
27 27 26 25 25 26 26 26 26 26 26 26 25 24 24 22 16 14 15 15 13 13 11 9 6 5 10 12 10 10 11 12 16 16 14 13 13 13 13 13 15 14 14 14 14 15 14 12 13 11 10 10 12 17 20 16 13 13 14 14 16 16 17 19 22 23 23 23 21 19 21 21 17 17 17 18 24 26 25 27 27 26 25 23 23 23 25 24
29 29 28 27 27 28 28 27 27 28 28 28 27 27 26 22 17 16 15 14 14 13 11 12 11 11 16 16 12 11 10 13 16 14 13 14 14 13 11 10 12 14 14 12 12 14 13 10 9 9 12 12 8 11 15 16 16 13 9 9 12 14 17 19 21 21 20 21 21 17 16 15 13 14 15 15 18 22 23 24 24 23 23 24 24 24 24 22
30 30 30 29 29 29 29 29 28 29 29 29 29 28 26 22 18 17 17 16 15 13 11 14 15 16 19 17 15 14 13 16 19 18 18 18 15 14 13 10 10 13 13 11 11 14 13 11 8 5 11 13 8 10 15 18 17 13 10 9 9 12 17 20 21 19 19 20 19 16 14 13 13 13 13 16 19 20 21 23 24 26 26 26 24 22 21 19
31 30 30 30 30 30 29 29 30 30 30 30 30 27 25 22 19 19 20 19 18 18 17 18 17 17 19 18 16 16 15 17 20 21 21 20 18 15 11 10 12 13 15 17 17 19 17 15 13 9 11 13 12 14 18 18 18 17 17 16 12 12 15 18 19 17 17 19 17 16 15 14 15 15 14 18 22 21 22 25 26 27 26 23 22 21 19 17
31 30 29 30 31 30 29 30 31 31 31 32 30 27 25 23 20 20 21 22 22 20 21 21 18 16 19 20 18 17 16 20 22 22 20 19 18 14 10 14 20 19 20 23 23 23 21 19 20 21 19 18 14 13 14 15 15 18 20 17 13 13 13 14 15 15 16 16 14 13 13 12 13 16 16 18 20 19 21 25 25 25 24 23 22 19 16 16
28 27 26 29 29 27 28 31 32 32 33 33 30 27 25 23 22 20 18 21 22 21 21 23 20 17 17 19 21 23 21 22 24 25 22 19 18 17 15 18 24 25 28 28 23 23 22 22 25 25 24 21 13 8 11 15 14 14 16 15 13 14 15 15 14 14 14 15 14 13 12 11 13 16 17 18 19 18 20 25 26 27 26 24 21 17 13 16
23 22 24 27 26 24 26 30 32 33 33 31 29 27 25 23 23 21 20 22 21 20 22 23 21 20 17 16 20 24 25 25 26 26 24 21 20 19 18 20 26 30 32 29 24 23 22 23 27 26 24 20 13 10 13 16 13 10 10 13 12 11 16 19 18 17 16 15 14 14 13 12 14 17 17 17 19 19 21 24 26 26 24 22 22 19 15 15
23 22 23 25 23 21 24 27 28 30 31 29 28 27 25 25 25 24 25 26 25 26 28 26 25 25 23 20 19 20 22 23 23 24 25 25 23 19 18 22 27 31 31 29 24 23 25 27 27 27 26 22 17 17 19 19 16 13 12 14 14 12 17 21 21 20 20 18 17 17 17 16 17 18 19 20 21 20 19 21 23 23 23 24 26 25 21 19
25 24 24 25 23 20 22 24 23 25 27 26 26 25 25 26 26 25 27 29 30 31 30 26 25 27 27 26 24 23 24 24 23 23 22 23 26 25 23 25 28 32 35 33 29 26 28 29 26 24 26 26 24 23 22 19 18 18 17 17 19 20 21 20 20 19 20 20 21 22 22 21 21 21 21 22 22 20 18 19 21 22 23 26 28 29 27 25
26 25 25 26 25 23 23 23 21 22 23 23 23 25 26 27 27 26 28 31 32 30 28 25 25 26 28 29 29 28 28 26 25 24 21 22 27 29 29 29 30 35 39 38 34 30 28 27 24 23 24 26 26 25 22 18 18 20 21 19 21 25 25 22 22 23 23 21 21 22 21 21 23 22 22 22 21 21 21 21 22 23 25 28 30 31 31 29
25 25 25 26 26 26 25 24 23 22 21 21 22 24 25 27 28 27 28 33 34 30 26 23 23 24 27 31 32 31 30 28 27 27 25 25 28 28 27 28 30 33 35 35 33 30 27 26 26 26 26 26 26 24 22 20 20 23 25 22 22 27 28 28 29 29 29 28 26 26 25 25 26 26 25 23 22 24 27 27 25 24 26 29 31 33 32 30
24 26 26 27 27 26 26 25 24 22 21 21 22 24 26 28 28 28 28 31 33 33 30 26 25 26 28 31 33 32 33 34 32 30 30 29 28 25 25 26 29 31 32 32 32 30 29 28 28 29 29 28 27 26 26 26 26 27 27 25 27 28 26 27 30 30 31 33 31 29 29 29 30 31 31 29 28 29 29 30 29 28 29 30 31 33 34 33
24 25 27 28 27 27 26 26 26 25 23 22 21 21 24 26 28 29 29 29 31 34 35 34 34 34 32 32 32 31 33 35 35 34 33 29 25 24 25 27 30 31 31 33 33 32 32 31 30 29 30 30 29 28 28 29 29 30 28 28 30 29 27 29 30 27 28 31 31 30 31 30 30 32 34 34 32 31 31 32 34 34 35 33 31 32 34 35
23 23 24 25 25 25 26 26 27 28 28 26 24 23 23 24 25 26 28 30 32 32 32 35 38 37 34 33 32 31 32 35 36 36 36 31 24 22 25 29 32 33 34 35 36 37 36 34 32 31 32 32 31 30 29 29 30 31 30 30 31 31 31 33 33 28 26 28 30 30 30 31 31 33 35 34 33 33 34 34 35 35 36 35 33 32 33 34
24 22 21 21 22 24 26 27 26 26 27 29 30 28 27 27 26 26 27 29 31 30 30 34 37 36 35 36 36 34 33 33 35 37 37 34 29 24 24 29 33 36 38 39 39 39 39 37 35 34 34 35 35 34 33 32 33 34 33 33 34 35 35 35 35 34 33 34 35 35 34 35 36 37 38 37 36 36 36 36 37 38 38 38 37 36 37 38
23 22 21 20 21 22 23 25 25 24 24 26 27 27 27 29 29 29 28 29 30 31 32 34 36 37 39 42 43 41 38 37 38 38 36 34 34 33 32 34 38 42 45 44 42 41 40 39 38 36 36 38 38 38 37 37 37 38 38 37 37 37 38 39 40 41 41 42 43 42 41 42 43 44 44 43 42 43 43 42 42 42 42 42 42 40 40 41
21 21 21 21 21 22 22 24 25 24 24 25 26 26 26 28 28 29 30 32 33 33 33 34 35 37 40 42 43 43 45 45 44 42 38 35 36 38 38 39 42 46 48 47 45 43 41 40 40 39 38 37 37 38 38 39 40 40 40 40 40 40 41 42 43 44 45 46 46 46 45 45 45 46 47 47 46 47 48 47 46 44 44 44 45 43 42 42
17 18 20 21 22 24 25 25 26 28 28 28 29 28 28 29 29 30 33 36 37 36 36 36 37 37 37 38 37 39 43 47 47 46 44 41 40 40 40 41 42 45 46 45 46 46 43 41 40 39 37 35 35 35 36 38 40 40 41 41 42 43 44 44 45 46 47 47 49 48 46 46 47 48 48 48 48 48 49 49 49 47 46 47 47 47 47 47
12 15 18 21 23 25 26 26 27 30 31 32 32 31 31 33 32 31 34 37 40 40 40 39 39 38 37 35 35 36 38 41 43 44 43 42 41 41 42 43 44 45 45 45 46 47 47 45 43 41 40 40 39 37 37 38 38 38 39 40 41 41 42 42 44 45 46 47 48 48 47 50 52 51 50 49 48 48 48 49 51 50 49 49 49 48 49 50
Wind_Direction
249 250 250 250 250 251 251 252 251 251 251 251 252 253 254 255 256 256 256 256 256 257 257 256 256 256 256 256 256 255 255 255 254 254 253 252 251 250 249 247 244 245 245 245 245 244 245 245 245 247 249 250 251 252 251 252 253 255 258 258 257 252 251 232 183 171 205 243 249 246 248 250 251 260 266 267 276 271 248 243 248 252 252 252 253 256 261 265
250 249 249 250 250 250 251 251 251 252 252 252 253 254 255 256 256 256 257 257 258 258 258 258 257 257 257 257 257 257 256 256 255 254 254 252 251 250 249 247 244 243 242 242 242 241 241 241 243 245 246 247 248 251 250 250 251 253 255 254 255 248 227 178 168 174 232 250 255 252 254 258 257 260 263 266 281 269 243 245 252 256 258 257 257 259 262 262
250 249 250 250 251 251 251 251 252 252 252 253 253 254 255 256 256 256 257 258 258 259 259 259 259 259 258 258 258 257 257 256 255 254 253 252 250 250 248 247 244 242 241 240 239 239 239 239 241 242 244 245 246 249 249 249 249 251 254 253 248 236 211 182 184 196 236 246 248 254 264 271 269 255 259 271 278 271 258 253 255 259 262 261 262 265 264 262
250 250 251 252 252 252 252 252 252 252 253 253 253 254 255 256 256 256 257 258 258 259 260 261 261 260 259 258 258 257 256 255 253 252 252 250 249 248 246 245 244 241 240 239 238 238 238 239 239 240 242 243 244 246 249 251 248 247 251 249 230 230 220 200 200 203 223 241 241 248 270 277 273 261 266 281 276 269 265 258 258 263 265 262 264 265 264 266
250 251 252 253 254 254 254 253 253 253 253 253 254 255 256 256 256 256 257 257 259 261 262 262 261 261 259 258 258 256 255 254 252 251 249 248 247 245 244 244 243 241 239 238 237 237 237 237 238 239 241 242 243 245 249 251 249 244 243 244 233 235 235 225 227 227 234 252 248 249 275 269 264 263 272 281 272 268 268 268 270 269 267 262 261 262 266 270
251 252 253 254 254 254 254 254 253 253 253 254 255 256 256 256 256 256 257 258 261 263 263 262 261 260 259 258 256 255 254 253 252 251 248 246 245 243 243 242 242 240 238 237 236 236 236 236 237 238 240 242 244 245 247 249 249 247 242 239 237 239 244 241 247 252 255 269 263 257 271 265 264 269 271 269 270 272 269 272 274 271 271 267 267 271 276 280
252 252 253 254 254 254 254 254 253 254 254 254 255 256 256 257 256 257 258 261 264 264 264 262 261 260 258 257 255 254 252 251 250 249 248 245 243 242 241 241 241 239 237 237 236 236 236 236 238 239 240 242 244 246 247 249 248 248 244 237 234 237 241 239 243 256 267 279 270 260 260 261 265 265 261 263 272 275 269 272 274 272 276 278 281 280 279 281
254 254 254 254 255 255 255 254 254 254 255 255 256 256 256 257 257 258 261 263 264 264 263 263 262 260 258 256 255 253 251 249 247 246 245 243 241 240 239 239 239 238 236 236 237 237 237 238 239 240 241 241 242 245 245 246 247 246 245 240 234 235 241 248 253 263 276 279 267 259 255 257 255 256 263 266 271 273 272 278 276 276 281 284 285 281 278 278
256 255 255 255 255 255 255 254 255 255 255 255 256 256 256 257 258 260 262 263 262 263 264 264 263 261 259 257 255 253 250 248 245 243 242 240 239 239 238 238 237 237 236 237 237 237 238 238 238 238 238 238 239 242 244 247 247 245 246 243 239 238 239 247 257 266 274 272 266 261 257 254 250 257 264 260 266 273 279 283 278 283 286 283 282 280 278 275
257 257 256 256 255 255 255 255 255 255 255 255 255 255 255 256 258 260 261 260 260 262 264 265 265 263 261 258 255 252 250 248 245 243 241 239 238 237 237 237 235 236 236 237 237 237 238 238 238 237 237 240 242 245 248 250 250 249 250 246 240 240 238 244 257 266 266 264 265 265 260 253 249 250 250 253 264 274 280 277 273 279 283 284 286 283 281 273
258 257 257 256 255 255 254 254 254 254 254 253 253 253 254 256 257 258 257 256 257 260 264 266 266 264 261 257 254 251 250 249 247 245 242 240 239 238 237 236 235 236 236 236 237 237 238 238 239 240 240 242 243 245 246 249 251 251 251 247 241 241 244 251 260 258 257 260 260 261 259 254 252 246 244 254 263 271 277 276 274 277 276 282 289 286 279 273
258 257 257 257 256 254 254 253 254 253 252 251 251 252 253 254 255 255 254 253 254 257 262 265 266 265 261 257 254 252 250 250 250 248 246 243 240 239 238 237 237 237 237 237 237 237 237 239 239 238 239 239 241 244 245 248 251 249 250 251 246 244 246 251 256 254 255 259 257 255 257 258 256 253 252 257 263 269 275 277 278 279 275 276 286 289 279 273
257 257 257 257 256 255 253 253 253 252 251 250 250 251 251 252 253 253 252 251 252 254 258 263 265 265 262 259 256 253 250 249 249 248 246 243 241 240 239 238 237 236 237 238 239 239 237 237 236 236 239 241 244 247 248 251 251 249 253 255 250 247 248 250 252 254 254 256 257 254 257 260 255 256 259 259 264 272 272 274 279 280 276 275 281 292 288 279
256 256 256 257 256 255 254 253 252 251 249 248 249 249 249 250 251 252 251 251 251 252 255 258 260 262 263 260 254 251 249 247 245 244 241 239 238 238 238 237 235 234 234 236 237 237 237 235 233 236 238 237 239 244 248 250 248 247 248 250 252 250 248 247 244 244 252 256 256 254 256 260 258 257 259 261 269 274 268 270 280 284 281 284 286 289 291 278
255 254 255 255 255 255 254 253 252 250 249 248 248 248 248 249 250 251 251 251 251 251 252 254 256 258 258 256 253 251 249 247 244 241 238 235 235 235 235 233 232 232 231 232 232 230 232 230 231 233 231 234 237 239 241 241 240 237 239 244 246 233 228 242 241 231 242 256 254 250 251 259 264 258 258 265 272 271 267 270 279 283 283 287 288 284 283 266
254 253 253 253 253 253 253 253 252 250 249 249 248 247 247 247 248 249 250 251 251 251 252 253 253 254 254 253 254 253 250 250 247 243 240 237 237 234 233 233 231 232 230 231 231 231 231 229 230 230 231 236 237 235 236 237 231 223 229 223 193 206 224 247 261 249 254 268 263 257 245 244 245 249 258 265 268 272 271 268 272 277 278 281 283 280 275 270
254 252 251 250 251 252 252 253 252 251 250 250 249 246 245 245 246 247 248 249 250 252 252 253 253 252 252 251 250 250 250 253 251 249 245 241 239 235 232 232 231 232 232 233 233 233 233 230 231 231 234 234 232 238 232 219 213 205 207 178 162 205 232 264 311 296 289 279 276 273 232 209 215 231 252 261 266 274 267 260 267 272 273 277 283 285 278 274
254 252 252 251 250 250 251 251 252 252 252 251 249 246 244 244 245 247 248 250 251 252 252 253 254 253 252 251 250 251 253 253 251 250 248 245 243 239 235 233 232 233 233 235 235 235 234 233 234 232 233 228 219 211 203 214 212 197 202 163 141 168 249 307 307 292 286 279 283 277 183 190 214 226 246 260 262 266 265 268 274 271 271 273 277 279 276 276
255 254 253 253 251 250 249 250 251 252 253 251 249 246 244 244 245 248 249 250 251 252 253 255 256 255 254 252 251 253 252 249 248 248 248 246 245 242 240 236 234 234 235 236 235 236 236 235 237 233 228 221 203 181 193 222 216 187 202 164 139 146 209 278 283 274 269 272 281 262 167 194 224 229 244 261 261 264 269 272 273 269 267 270 271 270 271 277
257 255 254 254 252 251 250 249 249 251 252 251 249 246 244 243 244 245 247 250 252 254 256 257 256 257 256 255 253 252 251 248 247 247 248 248 246 244 241 238 238 236 236 238 236 237 238 235 237 239 236 226 214 207 213 229 213 179 191 187 158 158 191 217 254 266 254 250 263 258 200 207 222 236 259 268 269 271 269 266 270 271 263 262 266 266 268 276
259 257 255 255 254 252 250 248 247 248 249 249 248 245 243 242 242 243 245 248 252 256 256 256 257 258 258 255 250 246 249 249 246 246 245 246 245 244 243 240 241 239 237 238 237 239 239 233 232 235 238 233 226 230 229 218 210 187 185 204 191 156 167 200 227 258 258 250 250 257 259 219 202 215 252 266 275 278 273 270 271 273 268 262 260 262 268 274
261 259 256 255 255 254 251 247 245 244 246 247 246 244 242 242 242 243 245 248 252 254 254 256 258 258 258 257 249 243 247 247 246 245 242 245 247 244 244 242 243 243 241 239 234 233 237 233 232 233 229 231 233 234 222 202 205 198 185 196 199 165 161 196 218 236 248 248 245 253 261 227 201 205 220 244 263 271 274 276 276 278 282 276 264 264 270 274
262 260 257 255 254 254 253 250 247 245 246 245 244 244 243 243 243 244 246 248 251 254 255 256 258 260 263 262 255 248 248 248 248 247 242 245 248 245 244 244 244 244 242 241 235 227 231 231 230 235 230 224 228 226 221 212 207 201 187 187 196 183 164 165 225 235 246 251 246 247 249 234 222 220 211 223 244 255 263 270 271 272 277 278 271 267 268 273
263 260 258 256 253 252 251 250 248 247 245 245 245 244 244 245 245 246 247 250 253 256 257 257 260 263 263 262 259 255 253 252 249 248 245 245 249 249 246 243 244 246 245 245 244 230 226 232 230 236 239 231 232 227 220 218 212 205 194 188 194 197 177 167 229 245 249 256 254 249 247 250 253 236 217 216 230 239 250 259 263 265 269 273 271 266 264 271
264 262 259 256 253 251 249 248 247 246 246 246 247 247 248 249 250 251 251 252 254 256 258 260 263 263 260 260 260 256 255 256 254 249 244 244 246 245 243 243 244 248 249 248 248 233 224 237 241 240 240 235 236 229 216 214 212 209 206 198 198 203 193 189 217 234 237 247 251 251 249 251 249 234 231 238 234 235 245 256 263 269 271 273 272 269 265 268
262 261 259 256 253 250 249 247 246 246 246 246 247 248 250 252 253 255 255 256 257 258 259 261 260 260 261 260 257 255 254 255 255 252 247 244 243 241 241 246 247 243 246 251 248 235 232 244 247 243 241 238 237 228 215 214 216 212 211 210 205 205 202 201 214 229 233 238 244 248 248 244 236 228 231 240 235 236 251 264 267 268 272 277 277 275 269 269
261 258 256 255 253 251 249 248 249 249 248 247 248 250 252 254 255 257 259 259 260 261 261 261 259 258 259 255 252 254 254 249 251 254 255 251 248 249 247 246 244 234 237 247 241 230 238 247 250 250 246 240 235 228 219 218 220 219 217 220 217 211 211 212 216 228 236 239 241 244 246 243 237 237 239 240 235 235 252 264 261 261 271 276 273 271 269 272
262 258 256 254 252 252 251 251 251 252 252 251 253 255 256 258 259 260 262 263 263 263 261 261 258 252 252 252 248 250 250 248 252 255 255 251 249 250 246 238 234 231 235 236 220 218 232 242 250 255 246 237 233 229 228 226 223 224 224 226 228 223 221 221 220 228 239 245 246 250 257 257 250 245 242 244 243 238 244 255 256 257 266 271 269 269 271 274
258 257 255 254 253 253 253 253 253 253 255 256 256 258 259 261 261 262 264 265 266 265 261 258 254 249 251 254 249 244 247 248 252 254 248 239 240 243 240 236 233 236 243 237 222 223 235 243 247 252 247 242 237 224 220 227 225 226 229 227 232 233 231 230 227 229 238 247 253 256 259 262 261 249 230 227 235 239 242 248 254 259 262 262 259 265 277 283
255 254 253 252 252 253 253 254 254 254 256 257 256 257 260 262 262 263 265 264 262 262 259 255 252 249 252 254 248 243 247 245 242 251 253 245 242 241 237 238 239 240 244 244 240 236 239 242 242 248 253 246 233 221 212 218 220 226 237 237 237 240 241 241 240 236 237 243 250 254 254 255 259 256 239 223 222 228 238 244 251 259 258 251 248 257 275 287
256 254 253 252 252 253 254 253 253 254 255 256 255 256 259 261 262 266 268 264 258 257 261 260 253 250 251 253 249 242 246 241 231 242 253 253 244 240 238 240 242 239 242 254 262 247 240 244 238 238 244 233 230 231 226 227 223 221 236 245 243 244 243 241 239 237 236 238 243 250 252 248 249 251 248 233 223 223 233 241 247 252 252 250 251 258 269 283
259 257 256 255 254 255 255 254 254 253 252 254 255 256 259 261 264 269 267 262 255 255 263 259 249 251 255 258 256 245 241 236 231 239 248 250 241 236 239 241 240 238 242 252 254 235 234 247 246 236 232 228 231 236 236 238 237 228 234 249 254 246 241 237 232 233 238 242 246 249 248 243 244 249 245 233 230 227 228 236 243 248 254 258 257 259 269 280
262 260 258 258 257 256 257 256 255 254 252 254 255 258 259 259 264 266 259 257 251 248 252 235 231 250 258 264 265 246 233 227 229 237 244 250 244 232 227 231 236 233 228 236 239 232 232 244 251 252 244 230 226 230 234 235 243 239 237 253 261 248 239 237 233 236 242 247 250 248 245 243 244 250 246 231 233 233 228 233 240 247 255 261 257 258 267 273
262 261 260 259 258 257 257 256 255 255 254 254 255 257 258 258 261 259 254 256 249 241 233 214 215 237 238 248 260 244 225 221 230 233 237 247 249 237 219 220 233 222 206 217 230 235 239 237 238 246 244 231 225 230 229 219 218 230 236 258 271 253 243 245 242 244 248 247 246 243 245 248 242 241 239 228 233 238 236 237 243 250 255 256 254 260 268 272
262 261 260 259 259 258 257 255 255 255 255 256 255 255 256 257 257 251 245 242 237 239 245 240 232 220 218 224 233 232 218 222 234 232 228 239 245 244 236 222 227 222 211 218 229 233 238 222 209 222 224 217 216 220 213 207 215 229 237 266 280 253 241 250 252 252 250 246 245 242 246 253 243 233 233 231 236 241 245 250 253 254 254 255 260 267 274 279
262 262 261 260 258 258 257 256 255 254 254 255 254 254 255 255 249 242 239 232 222 223 238 245 235 218 214 216 217 219 216 224 234 228 222 230 232 238 247 237 225 226 220 219 225 226 221 204 195 230 228 211 196 197 193 195 207 211 208 229 259 249 241 250 255 252 247 246 249 248 247 251 250 248 250 254 255 251 254 259 259 258 259 263 268 274 280 284
263 262 262 261 258 257 257 257 256 254 253 253 252 252 253 250 243 236 235 227 216 213 218 229 233 221 216 219 208 202 215 231 237 234 226 227 227 228 237 242 243 239 220 209 215 223 214 194 183 195 224 230 224 215 209 210 214 206 199 208 226 235 239 250 257 254 247 246 249 250 251 252 254 257 259 260 262 261 261 260 259 260 262 266 271 275 281 282
264 263 263 261 259 258 257 255 254 253 252 252 251 251 250 248 242 235 235 231 224 223 221 223 231 227 221 222 205 191 213 230 233 235 230 223 222 216 208 231 243 244 235 223 218 224 217 195 188 187 197 220 232 227 227 236 235 218 206 213 229 235 238 249 257 256 248 248 252 252 251 253 255 256 256 256 256 258 261 261 262 264 267 270 271 273 280 282
265 264 263 261 259 258 256 254 253 251 251 251 252 251 249 245 239 230 228 231 233 236 232 227 230 230 227 227 211 198 207 221 227 233 233 226 221 211 203 224 233 234 239 239 229 229 221 202 201 199 194 204 212 219 243 253 249 229 217 222 236 246 247 245 249 256 254 250 254 255 251 250 251 254 259 255 249 253 261 263 267 271 273 274 274 279 295 294
266 263 261 259 258 256 254 252 252 251 251 251 250 247 245 241 236 226 215 218 229 238 234 228 230 228 227 231 221 209 208 215 221 224 223 220 217 214 211 220 226 227 235 241 238 235 230 215 210 208 203 205 200 200 232 246 244 236 232 235 243 254 254 247 243 247 252 252 256 259 257 252 249 254 260 257 251 256 261 263 267 268 269 273 276 283 298 299
264 260 257 258 258 255 253 252 252 251 250 248 246 244 241 237 232 225 219 216 221 231 230 226 228 228 226 229 226 220 221 223 223 222 221 213 207 216 232 232 231 232 234 239 238 233 232 228 220 214 215 222 226 221 223 228 230 229 232 237 240 245 251 252 248 244 245 246 248 251 252 251 252 255 259 258 258 260 261 265 269 265 265 273 275 278 284 289
262 259 257 259 257 253 253 254 253 252 250 246 244 241 238 235 230 225 226 223 223 231 234 230 230 233 236 236 232 229 233 232 228 229 233 224 210 210 225 231 233 236 237 238 238 234 235 236 232 227 227 233 241 239 233 234 238 237 235 232 233 239 247 256 258 255 250 244 243 245 246 249 253 256 259 261 263 264 262 264 264 260 265 273 273 275 280 284
260 258 256 256 256 252 252 254 255 254 251 246 241 237 234 233 230 225 226 229 229 233 238 235 234 236 239 240 235 232 236 237 234 232 236 240 230 218 216 221 225 232 236 239 240 239 240 241 240 238 235 235 241 246 248 248 243 242 244 238 230 232 239 252 260 262 261 256 251 250 251 255 258 258 258 259 263 265 265 264 260 259 266 272 273 275 278 279
258 256 253 252 252 252 251 251 251 251 248 242 237 234 231 230 229 224 225 230 231 231 234 236 235 235 235 236 232 229 233 237 239 235 231 237 241 231 224 225 224 225 231 238 241 240 238 239 240 239 237 237 240 244 244 239 235 242 247 245 239 235 238 250 259 261 262 259 254 253 255 257 259 259 258 260 264 266 268 267 262 260 264 268 272 275 277 276
257 253 250 247 247 247 247 246 246 245 243 240 236 233 230 228 226 223 225 231 232 228 227 228 229 229 231 235 233 229 231 235 237 237 234 237 243 238 228 229 231 230 233 238 241 242 242 244 244 242 240 238 239 242 244 242 243 247 245 247 253 252 248 253 258 258 257 255 252 251 253 254 255 258 258 259 261 263 264 264 262 261 264 265 268 272 273 271
258 254 251 249 247 245 244 242 240 238 238 240 243 241 237 231 227 226 227 231 234 231 227 227 231 232 233 237 238 236 235 237 238 237 235 237 247 247 236 232 234 236 238 242 243 242 243 245 246 246 244 242 241 245 249 251 252 253 249 249 254 254 250 256 262 260 256 256 255 251 250 253 256 259 260 258 257 258 261 263 263 265 266 267 268 271 272 269
258 257 256 255 251 244 242 242 241 238 236 237 238 237 236 232 229 230 230 231 235 237 234 231 233 234 235 238 241 240 238 238 238 239 237 234 240 251 249 242 241 240 239 242 244 246 248 248 247 248 248 249 249 248 248 250 252 253 254 254 255 253 251 258 265 263 257 258 259 253 253 258 262 261 260 258 255 255 258 262 263 264 265 265 267 270 271 269
254 253 252 251 249 245 241 241 243 241 238 237 238 236 233 231 227 224 226 230 235 239 236 232 232 233 234 238 240 239 237 237 238 240 241 238 234 239 246 245 244 244 243 243 245 249 254 255 253 252 251 252 254 253 251 248 248 250 251 252 254 254 252 254 259 259 257 259 259 256 256 260 261 258 257 258 258 258 259 260 261 262 262 262 263 266 268 270
250 249 246 243 243 243 241 238 239 239 234 235 241 241 236 235 233 227 225 229 233 236 236 235 235 235 235 237 240 240 237 235 235 235 237 238 236 237 241 243 246 248 249 250 251 253 256 258 258 258 257 256 256 257 256 254 251 251 251 251 253 255 255 255 256 258 260 262 263 262 261 259 257 255 254 255 257 260 262 261 261 262 263 263 263 264 266 269
245 243 242 241 238 236 235 234 233 232 230 230 234 236 233 233 234 230 227 228 230 231 234 236 237 239 240 240 242 242 241 239 238 236 233 233 237 240 242 245 250 254 257 259 260 260 259 259 259 259 260 260 259 259 260 259 258 256 255 254 254 254 255 255 258 260 260 261 263 264 262 260 258 258 258 257 257 259 260 259 259 260 261 263 263 263 263 266
244 238 236 235 234 232 232 231 229 229 230 230 229 229 229 230 230 227 225 227 230 230 228 229 233 238 242 243 244 244 245 245 244 242 238 235 236 240 242 245 251 255 258 261 262 260 259 261 262 261 261 262 263 263 262 260 259 259 259 258 257 257 258 259 261 261 260 259 260 260 258 257 259 261 262 262 262 261 258 257 257 258 258 259 261 262 263 265
253 242 234 231 231 233 235 234 232 231 231 233 233 233 233 234 233 231 229 229 233 236 234 232 234 239 241 243 244 245 248 250 249 250 248 243 241 242 244 247 250 254 257 259 261 262 262 265 267 267 266 266 267 266 264 262 263 263 262 262 263 264 265 265 263 261 259 259 261 260 257 257 262 265 266 266 266 264 261 258 257 256 255 256 258 260 263 265
Height
5753 5754 5754 5755 5755 5756 5756 5757 5757 5758 5758 5759 5759 5760 5761 5761 5762 5762 5763 5763 5764 5764 5765 5765 5766 5766 5766 5767 5768 5768 5769 5770 5770 5771 5772 5773 5774 5774 5775 5776 5777 5778 5779 5780 5781 5781 5782 5783 5783 5784 5785 5786 5786 5786 5787 5787 5787 5787 5788 5789 5790 5792 5793 5796 5795 5796 5797 5797 5797 5795 5793 5794 5797 5800 5800 5799 5800 5801 5797 5798 5800 5800 5801 5803 5803 5802 5804 5807
5751 5752 5752 5753 5753 5753 5754 5754 5755 5755 5756 5756 5757 5757 5758 5759 5759 5760 5760 5761 5761 5762 5762 5763 5763 5763 5764 5764 5765 5765 5766 5767 5767 5768 5769 5770 5770 5771 5773 5774 5775 5776 5776 5777 5778 5779 5780 5781 5781 5782 5783 5784 5784 5784 5785 5785 5785 5786 5786 5787 5789 5790 5792 5794 5793 5792 5794 5794 5793 5792 5791 5792 5798 5800 5797 5797 5800 5798 5794 5796 5799 5798 5800 5801 5801 5802 5804 5805
5749 5749 5750 5750 5751 5751 5752 5752 5752 5753 5753 5754 5754 5755 5756 5756 5757 5757 5758 5758 5759 5759 5759 5760 5760 5761 5761 5761 5762 5762 5763 5764 5764 5765 5766 5767 5768 5769 5770 5771 5772 5773 5774 5774 5776 5777 5778 5778 5779 5780 5780 5781 5782 5782 5782 5782 5784 5784 5784 5786 5788 5788 5789 5790 5788 5788 5789 5789 5790 5791 5790 5790 5795 5797 5794 5796 5798 5796 5793 5795 5796 5796 5799 5799 5799 5802 5803 5803
5746 5747 5747 5748 5748 5749 5749 5750 5750 5751 5751 5751 5752 5753 5753 5754 5754 5755 5756 5756 5756 5757 5757 5757 5757 5758 5758 5759 5759 5760 5761 5761 5761 5762 5763 5764 5765 5766 5767 5768 5769 5770 5771 5772 5773 5774 5775 5776 5777 5778 5778 5779 5779 5780 5780 5780 5782 5782 5782 5784 5785 5785 5785 5785 5783 5784 5784 5784 5788 5791 5791 5790 5792 5793 5792 5795 5795 5794 5791 5792 5795 5796 5798 5798 5798 5801 5801 5801
5744 5744 5745 5745 5746 5746 5747 5747 5748 5748 5748 5749 5750 5750 5751 5751 5752 5753 5753 5754 5754 5754 5754 5754 5755 5755 5755 5756 5757 5757 5758 5758 5758 5759 5760 5761 5762 5763 5764 5765 5766 5767 5768 5770 5771 5772 5773 5774 5775 5775 5776 5777 5777 5778 5778 5778 5779 5780 5781 5782 5783 5782 5783 5783 5782 5782 5782 5783 5787 5791 5791 5790 5790 5790 5792 5792 5790 5791 5790 5791 5795 5794 5795 5796 5797 5798 5799 5799
5741 5742 5742 5743 5743 5744 5744 5745 5745 5746 5746 5747 5747 5748 5748 5749 5750 5750 5751 5751 5751 5751 5751 5752 5752 5752 5753 5753 5754 5754 5755 5755 5755 5756 5757 5758 5759 5760 5761 5762 5763 5765 5766 5767 5768 5769 5770 5771 5772 5773 5774 5775 5775 5776 5776 5776 5777 5778 5779 5780 5781 5781 5781 5782 5783 5781 5780 5784 5788 5789 5789 5788 5789 5789 5791 5788 5786 5789 5789 5791 5794 5792 5792 5794 5795 5797 5798 5798
5739 5739 5740 5740 5741 5741 5742 5742 5743 5743 5744 5744 5745 5746 5746 5747 5747 5748 5749 5749 5749 5749 5749 5749 5749 5749 5750 5750 5751 5752 5752 5752 5752 5753 5754 5755 5756 5757 5759 5760 5761 5762 5763 5764 5766 5767 5768 5769 5770 5771 5772 5772 5773 5773 5774 5774 5774 5776 5777 5778 5779 5779 5778 5779 5780 5778 5779 5783 5786 5787 5787 5787 5787 5788 5788 5785 5784 5786 5787 5790 5792 5790 5790 5791 5793 5796 5796 5796
5736 5737 5737 5738 5738 5739 5739 5740 5740 5741 5741 5742 5743 5743 5744 5744 5745 5746 5746 5746 5746 5746 5746 5746 5746 5747 5747 5748 5748 5749 5749 5749 5750 5751 5751 5753 5754 5755 5756 5757 5758 5759 5761 5762 5763 5764 5765 5766 5767 5768 5769 5770 5771 5770 5771 5771 5772 5774 5774 5775 5776 5776 5776 5776 5777 5777 5778 5781 5783 5784 5785 5786 5786 5786 5785 5782 5781 5783 5786 5789 5790 5789 5789 5790 5792 5794 5794 5794
5734 5734 5735 5735 5736 5736 5737 5737 5738 5738 5739 5740 5740 5741 5742 5742 5743 5743 5744 5744 5744 5744 5744 5744 5744 5744 5745 5745 5746 5746 5746 5746 5747 5748 5749 5750 5751 5752 5753 5754 5755 5756 5758 5759 5760 5762 5762 5763 5764 5765 5766 5766 5767 5767 5768 5769 5770 5771 5771 5772 5774 5774 5775 5775 5774 5775 5776 5778 5780 5782 5783 5783 5783 5785 5784 5780 5779 5781 5784 5787 5787 5788 5788 5789 5790 5791 5792 5792
5731 5732 5732 5733 5733 5734 5734 5735 5735 5736 5737 5737 5738 5739 5739 5740 5740 5741 5741 5741 5741 5741 5742 5742 5742 5742 5742 5743 5743 5744 5743 5744 5745 5745 5746 5747 5748 5750 5751 5752 5753 5754 5755 5756 5758 5758 5759 5760 5761 5762 5763 5763 5764 5765 5766 5766 5767 5768 5768 5770 5771 5771 5772 5772 5773 5774 5775 5776 5778 5780 5780 5780 5782 5784 5782 5779 5778 5780 5783 5785 5786 5787 5787 5787 5788 5788 5789 5789
5729 5729 5730 5730 5731 5731 5732 5733 5733 5734 5734 5735 5735 5736 5737 5737 5738 5738 5739 5739 5739 5739 5739 5740 5740 5740 5740 5741 5741 5741 5742 5742 5742 5743 5744 5745 5746 5747 5748 5749 5750 5751 5753 5754 5755 5755 5756 5757 5758 5759 5760 5761 5762 5763 5763 5763 5764 5765 5765 5766 5767 5768 5769 5770 5772 5773 5773 5775 5776 5778 5777 5778 5780 5782 5781 5778 5778 5779 5781 5783 5785 5786 5786 5785 5786 5786 5786 5786
5727 5727 5728 5728 5728 5729 5730 5730 5731 5731 5732 5732 5733 5734 5734 5735 5735 5736 5737 5737 5737 5737 5738 5738 5738 5738 5739 5739 5739 5739 5740 5740 5740 5741 5742 5743 5744 5745 5746 5747 5748 5749 5750 5751 5752 5753 5754 5754 5756 5757 5757 5758 5759 5759 5760 5761 5762 5762 5762 5763 5765 5766 5767 5769 5770 5770 5772 5772 5773 5775 5775 5776 5779 5779 5778 5777 5778 5779 5778 5779 5781 5783 5784 5784 5785 5784 5784 5783
5724 5725 5725 5726 5726 5727 5727 5728 5728 5729 5729 5730 5730 5731 5732 5732 5733 5734 5734 5735 5735 5735 5736 5736 5736 5737 5737 5737 5738 5738 5738 5738 5739 5739 5740 5741 5742 5743 5744 5745 5746 5747 5748 5749 5750 5751 5751 5752 5753 5754 5755 5757 5757 5757 5758 5759 5759 5760 5760 5761 5763 5764 5766 5767 5767 5768 5770 5770 5770 5773 5774 5775 5777 5777 5775 5776 5778 5778 5776 5776 5778 5780 5781 5782 5784 5783 5781 5782
5722 5722 5723 5723 5724 5724 5725 5725 5726 5726 5727 5727 5728 5729 5729 5730 5731 5731 5732 5733 5733 5734 5734 5735 5735 5735 5736 5736 5736 5736 5737 5737 5737 5738 5739 5740 5740 5741 5742 5743 5744 5745 5746 5747 5748 5748 5749 5750 5751 5752 5753 5754 5754 5755 5756 5757 5757 5758 5758 5759 5761 5762 5764 5764 5764 5766 5768 5767 5767 5771 5773 5774 5775 5774 5772 5774 5777 5777 5775 5774 5775 5776 5777 5778 5780 5780 5780 5781
5719 5720 5720 5721 5721 5722 5723 5723 5723 5724 5724 5725 5725 5726 5727 5728 5729 5729 5730 5731 5731 5732 5732 5733 5733 5734 5734 5734 5735 5735 5735 5736 5736 5737 5738 5738 5739 5740 5741 5741 5742 5743 5744 5744 5745 5746 5747 5748 5749 5749 5750 5751 5752 5753 5753 5754 5755 5756 5757 5758 5759 5760 5761 5760 5761 5765 5766 5764 5765 5769 5772 5772 5773 5771 5770 5772 5775 5776 5775 5774 5773 5773 5773 5774 5776 5777 5778 5780
5717 5717 5718 5718 5719 5719 5720 5721 5721 5721 5722 5723 5723 5724 5725 5726 5726 5727 5728 5729 5729 5730 5730 5731 5732 5732 5733 5733 5734 5734 5734 5735 5735 5735 5736 5737 5738 5738 5739 5740 5740 5741 5742 5742 5743 5744 5745 5746 5746 5747 5748 5748 5750 5750 5751 5752 5753 5754 5755 5757 5758 5758 5758 5758 5760 5763 5765 5763 5762 5767 5770 5771 5771 5769 5768 5770 5772 5775 5775 5772 5771 5772 5772 5771 5773 5775 5777 5778
5714 5715 5715 5716 5716 5717 5718 5718 5719 5719 5720 5720 5721 5722 5723 5723 5724 5725 5726 5727 5727 5728 5728 5729 5730 5730 5731 5731 5732 5732 5733 5733 5734 5734 5734 5735 5736 5737 5737 5738 5739 5739 5740 5741 5741 5742 5743 5744 5744 5745 5746 5746 5747 5748 5749 5750 5750 5751 5752 5755 5757 5757 5756 5757 5759 5760 5763 5763 5762 5764 5767 5769 5769 5767 5767 5768 5770 5773 5773 5770 5770 5770 5770 5770 5770 5772 5774 5776
5712 5713 5713 5713 5714 5714 5715 5716 5716 5717 5717 5718 5718 5719 5720 5721 5722 5723 5724 5725 5725 5726 5726 5727 5728 5728 5729 5730 5730 5731 5732 5732 5732 5733 5733 5734 5734 5735 5736 5736 5737 5738 5738 5739 5740 5740 5741 5742 5743 5743 5744 5744 5745 5747 5747 5747 5747 5749 5750 5752 5755 5756 5756 5757 5759 5760 5761 5762 5762 5763 5765 5767 5766 5765 5766 5767 5768 5771 5771 5769 5768 5768 5769 5769 5769 5770 5771 5773
5710 5710 5711 5711 5712 5712 5713 5713 5714 5714 5715 5716 5716 5717 5718 5719 5720 5721 5722 5723 5723 5724 5724 5725 5725 5726 5727 5728 5729 5729 5730 5730 5731 5731 5731 5732 5732 5733 5734 5734 5735 5736 5737 5737 5738 5739 5739 5740 5741 5741 5742 5743 5744 5745 5745 5745 5745 5747 5749 5752 5753 5755 5756 5758 5759 5759 5760 5761 5761 5762 5764 5765 5765 5765 5767 5766 5766 5769 5769 5768 5765 5765 5767 5767 5767 5768 5768 5771
5708 5708 5709 5709 5709 5710 5710 5711 5712 5712 5713 5713 5714 5715 5716 5716 5718 5719 5720 5720 5721 5722 5722 5723 5723 5723 5724 5726 5727 5728 5728 5728 5729 5729 5730 5730 5731 5731 5732 5732 5733 5734 5735 5736 5736 5737 5738 5739 5739 5740 5741 5741 5742 5742 5743 5744 5744 5746 5749 5752 5753 5753 5757 5759 5759 5757 5758 5760 5760 5761 5764 5765 5765 5766 5767 5765 5765 5767 5767 5766 5764 5764 5765 5765 5765 5766 5767 5768
5706 5706 5707 5707 5707 5708 5708 5709 5709 5710 5710 5711 5712 5713 5713 5714 5715 5717 5717 5718 5719 5719 5720 5720 5721 5721 5722 5723 5725 5726 5726 5726 5727 5727 5728 5728 5729 5729 5730 5731 5732 5732 5733 5734 5735 5736 5736 5737 5738 5738 5740 5740 5740 5741 5742 5743 5744 5745 5747 5751 5753 5753 5755 5758 5758 5757 5757 5759 5760 5760 5762 5763 5764 5765 5766 5764 5764 5764 5764 5764 5764 5763 5763 5764 5763 5764 5764 5765
5704 5704 5704 5705 5705 5705 5706 5706 5707 5708 5708 5709 5709 5710 5711 5712 5713 5714 5715 5716 5716 5717 5718 5718 5719 5719 5720 5721 5722 5723 5724 5724 5725 5725 5726 5726 5727 5727 5728 5729 5730 5730 5731 5732 5734 5734 5735 5735 5735 5736 5738 5739 5739 5740 5741 5742 5743 5744 5745 5750 5753 5752 5753 5755 5758 5756 5755 5757 5759 5758 5760 5761 5761 5762 5764 5764 5763 5761 5761 5761 5762 5761 5761 5761 5761 5761 5761 5761
5702 5702 5703 5703 5703 5703 5704 5704 5705 5705 5706 5707 5707 5708 5709 5710 5711 5712 5713 5714 5714 5715 5716 5717 5717 5717 5718 5718 5719 5721 5721 5722 5723 5724 5724 5724 5725 5726 5727 5727 5728 5728 5729 5730 5731 5732 5733 5733 5733 5733 5736 5737 5738 5738 5739 5740 5741 5743 5744 5747 5751 5752 5751 5752 5755 5755 5753 5754 5757 5757 5758 5759 5759 5759 5762 5763 5761 5760 5760 5760 5761 5761 5759 5758 5757 5758 5759 5758
5700 5700 5701 5701 5701 5701 5702 5702 5702 5703 5703 5704 5705 5706 5707 5707 5708 5709 5710 5711 5712 5713 5714 5714 5715 5716 5716 5716 5717 5719 5719 5719 5721 5721 5722 5722 5722 5724 5725 5725 5725 5726 5727 5728 5729 5730 5731 5731 5731 5732 5734 5735 5735 5736 5738 5739 5740 5741 5743 5745 5748 5750 5749 5749 5750 5752 5752 5751 5752 5755 5756 5757 5758 5758 5759 5760 5760 5759 5760 5759 5760 5761 5760 5757 5755 5755 5756 5756
5698 5698 5699 5699 5699 5699 5699 5700 5700 5701 5702 5703 5703 5704 5705 5705 5706 5707 5708 5709 5710 5711 5712 5713 5714 5714 5713 5714 5715 5716 5716 5717 5718 5718 5720 5720 5721 5722 5723 5723 5724 5724 5725 5726 5727 5728 5729 5729 5730 5731 5732 5733 5734 5735 5736 5737 5738 5740 5742 5743 5746 5748 5748 5746 5746 5748 5749 5748 5749 5751 5753 5754 5757 5757 5757 5758 5759 5759 5758 5757 5758 5758 5757 5755 5754 5754 5754 5755
5696 5696 5696 5697 5697 5697 5698 5698 5698 5699 5700 5701 5701 5702 5703 5703 5704 5705 5706 5707 5708 5709 5710 5711 5711 5711 5711 5712 5713 5713 5714 5715 5714 5714 5717 5719 5719 5720 5720 5721 5723 5723 5723 5724 5724 5726 5726 5726 5728 5730 5731 5732 5733 5734 5734 5736 5737 5738 5740 5741 5743 5745 5745 5744 5743 5744 5745 5746 5747 5748 5749 5751 5753 5754 5755 5756 5757 5757 5756 5755 5756 5755 5753 5753 5753 5752 5752 5751
5694 5694 5694 5695 5695 5695 5696 5696 5697 5697 5698 5699 5699 5700 5701 5701 5702 5703 5703 5705 5706 5706 5707 5708 5709 5709 5708 5709 5710 5711 5711 5712 5711 5712 5714 5717 5717 5717 5719 5720 5721 5722 5722 5722 5723 5724 5724 5724 5725 5727 5729 5730 5731 5732 5733 5734 5735 5737 5738 5739 5740 5741 5742 5742 5742 5742 5742 5743 5745 5745 5746 5748 5750 5751 5752 5753 5753 5753 5753 5753 5754 5753 5752 5751 5750 5749 5748 5748
5691 5691 5692 5692 5693 5693 5694 5694 5695 5695 5696 5696 5697 5698 5699 5699 5700 5700 5701 5702 5703 5703 5705 5705 5706 5706 5705 5706 5708 5709 5709 5709 5710 5710 5712 5714 5714 5715 5717 5718 5719 5719 5719 5720 5722 5722 5723 5723 5724 5726 5727 5728 5729 5731 5731 5732 5733 5735 5736 5737 5738 5738 5739 5740 5740 5740 5740 5741 5742 5743 5743 5744 5746 5748 5749 5749 5749 5749 5749 5750 5751 5751 5751 5749 5747 5745 5745 5745
5689 5689 5689 5690 5690 5691 5691 5692 5692 5693 5693 5694 5695 5695 5696 5697 5697 5697 5698 5699 5700 5700 5701 5702 5704 5704 5702 5703 5706 5707 5706 5707 5708 5707 5709 5712 5712 5713 5715 5715 5716 5717 5716 5717 5719 5721 5721 5721 5722 5723 5724 5726 5727 5728 5729 5729 5731 5732 5732 5734 5734 5734 5736 5737 5738 5739 5739 5738 5739 5741 5741 5740 5741 5744 5746 5747 5747 5747 5747 5747 5748 5749 5750 5748 5744 5742 5742 5742
5686 5686 5687 5687 5688 5688 5689 5690 5690 5690 5691 5691 5692 5693 5694 5694 5695 5695 5696 5697 5698 5697 5697 5699 5701 5701 5700 5701 5704 5705 5704 5706 5706 5704 5705 5709 5711 5711 5712 5713 5714 5715 5715 5715 5717 5719 5719 5719 5720 5721 5722 5724 5725 5725 5725 5726 5727 5728 5729 5731 5731 5732 5734 5735 5736 5737 5736 5736 5737 5738 5739 5738 5738 5740 5743 5744 5745 5745 5745 5745 5745 5746 5747 5746 5743 5742 5741 5740
5683 5683 5684 5684 5685 5685 5686 5686 5687 5688 5688 5688 5689 5690 5691 5692 5692 5693 5694 5694 5696 5695 5695 5697 5698 5698 5698 5699 5701 5702 5702 5704 5704 5702 5703 5706 5708 5709 5710 5711 5712 5712 5713 5713 5715 5717 5716 5716 5718 5719 5720 5722 5722 5722 5722 5722 5724 5726 5727 5728 5729 5730 5731 5732 5733 5734 5733 5733 5735 5736 5736 5736 5735 5736 5739 5741 5742 5742 5742 5742 5743 5743 5743 5744 5743 5742 5741 5740
5680 5680 5681 5681 5682 5682 5683 5683 5684 5685 5685 5686 5687 5687 5688 5689 5690 5692 5692 5692 5693 5693 5693 5695 5695 5695 5696 5697 5698 5700 5700 5701 5701 5700 5702 5704 5706 5707 5708 5709 5710 5710 5711 5712 5713 5714 5714 5714 5715 5717 5718 5719 5720 5721 5721 5722 5723 5724 5725 5726 5727 5728 5728 5728 5729 5729 5729 5731 5733 5733 5733 5732 5732 5733 5736 5738 5737 5738 5739 5739 5739 5739 5740 5742 5743 5742 5741 5741
5676 5677 5677 5678 5679 5679 5679 5680 5681 5681 5682 5683 5684 5685 5685 5686 5688 5690 5690 5690 5691 5691 5692 5693 5693 5693 5694 5695 5696 5697 5698 5699 5699 5699 5701 5702 5703 5705 5706 5706 5707 5709 5710 5710 5711 5711 5712 5713 5713 5715 5716 5717 5718 5718 5720 5721 5722 5723 5724 5724 5724 5725 5726 5726 5726 5726 5727 5728 5730 5730 5730 5729 5730 5732 5734 5734 5733 5734 5735 5735 5736 5736 5738 5740 5741 5741 5741 5741
5673 5673 5674 5675 5675 5676 5676 5677 5678 5678 5679 5680 5681 5682 5682 5684 5687 5688 5687 5688 5689 5690 5690 5691 5691 5692 5693 5694 5695 5695 5696 5697 5697 5698 5699 5700 5701 5702 5703 5704 5705 5707 5707 5708 5709 5709 5710 5711 5712 5713 5714 5715 5716 5716 5718 5719 5719 5720 5722 5722 5722 5723 5723 5723 5723 5724 5725 5725 5726 5727 5727 5727 5729 5730 5730 5730 5730 5730 5732 5732 5733 5734 5736 5737 5737 5738 5739 5741
5669 5669 5670 5671 5671 5672 5672 5673 5674 5675 5675 5676 5677 5678 5679 5682 5685 5685 5685 5686 5687 5688 5689 5689 5689 5690 5691 5692 5693 5693 5695 5696 5697 5697 5698 5698 5699 5700 5701 5703 5703 5704 5705 5706 5707 5708 5709 5710 5711 5712 5711 5712 5714 5715 5716 5717 5717 5718 5719 5720 5721 5721 5720 5721 5721 5722 5723 5722 5723 5725 5725 5726 5727 5727 5727 5727 5727 5727 5728 5729 5731 5732 5732 5732 5733 5735 5736 5738
5664 5665 5666 5667 5667 5667 5668 5669 5670 5671 5672 5672 5673 5675 5677 5680 5682 5682 5682 5683 5684 5685 5685 5686 5686 5687 5688 5689 5691 5692 5693 5695 5695 5696 5696 5696 5698 5698 5699 5701 5702 5703 5703 5705 5705 5705 5706 5708 5709 5710 5710 5711 5713 5714 5714 5715 5716 5717 5717 5719 5719 5719 5719 5719 5719 5720 5720 5720 5721 5723 5724 5724 5725 5725 5726 5726 5725 5725 5726 5726 5727 5728 5728 5728 5730 5732 5733 5733
5660 5661 5662 5662 5663 5663 5664 5665 5665 5666 5667 5668 5669 5672 5674 5677 5678 5679 5679 5680 5680 5681 5682 5683 5684 5685 5685 5686 5688 5689 5691 5692 5692 5693 5694 5694 5696 5697 5698 5699 5701 5702 5702 5702 5702 5701 5703 5706 5707 5708 5710 5711 5712 5713 5713 5713 5714 5715 5716 5716 5717 5717 5717 5717 5717 5718 5718 5719 5720 5721 5722 5723 5723 5724 5724 5724 5723 5723 5723 5723 5723 5724 5725 5726 5727 5729 5730 5729
5655 5657 5658 5657 5658 5659 5660 5660 5660 5661 5662 5663 5665 5669 5671 5673 5675 5676 5677 5677 5678 5678 5679 5680 5681 5682 5683 5684 5685 5686 5688 5689 5689 5690 5691 5693 5694 5695 5697 5697 5698 5700 5699 5698 5699 5699 5701 5704 5705 5705 5707 5708 5709 5711 5712 5713 5713 5714 5715 5715 5714 5715 5715 5715 5715 5716 5716 5717 5718 5719 5719 5720 5721 5721 5721 5721 5720 5720 5719 5718 5719 5720 5721 5723 5724 5726 5726 5726
5651 5652 5653 5652 5653 5655 5655 5655 5655 5656 5657 5659 5662 5665 5668 5670 5672 5673 5674 5675 5676 5676 5676 5678 5679 5679 5680 5681 5682 5683 5683 5685 5686 5687 5689 5691 5692 5693 5694 5694 5695 5696 5695 5694 5697 5698 5699 5702 5702 5702 5704 5705 5706 5707 5709 5711 5711 5712 5714 5714 5714 5714 5714 5714 5714 5714 5715 5715 5716 5717 5717 5718 5718 5717 5718 5718 5718 5718 5716 5714 5714 5716 5717 5718 5720 5721 5722 5722
5647 5648 5648 5647 5649 5651 5650 5650 5650 5651 5653 5656 5658 5661 5663 5665 5667 5669 5670 5671 5672 5672 5673 5674 5676 5676 5676 5677 5679 5680 5680 5681 5682 5684 5686 5687 5688 5689 5690 5690 5690 5691 5692 5692 5695 5696 5697 5699 5700 5701 5702 5703 5704 5705 5707 5709 5710 5710 5711 5711 5711 5712 5712 5712 5712 5712 5712 5713 5714 5714 5715 5715 5715 5715 5715 5715 5715 5715 5714 5712 5711 5712 5714 5715 5715 5717 5719 5719
5643 5644 5643 5643 5645 5647 5646 5645 5646 5647 5649 5652 5654 5656 5659 5661 5663 5665 5666 5666 5667 5667 5668 5670 5672 5673 5673 5674 5675 5677 5677 5678 5679 5681 5682 5683 5684 5686 5688 5688 5688 5688 5689 5691 5692 5694 5694 5695 5697 5699 5700 5702 5703 5703 5703 5706 5707 5707 5708 5708 5708 5708 5708 5708 5709 5710 5710 5711 5711 5711 5711 5712 5712 5712 5713 5712 5712 5713 5712 5710 5708 5708 5710 5711 5711 5713 5715 5716
5638 5639 5639 5639 5641 5643 5642 5642 5643 5644 5645 5648 5650 5652 5654 5656 5658 5661 5662 5662 5662 5662 5664 5668 5669 5670 5671 5672 5672 5673 5674 5675 5677 5678 5679 5679 5678 5680 5682 5684 5685 5684 5684 5686 5688 5690 5691 5691 5695 5698 5699 5700 5700 5700 5701 5703 5704 5704 5705 5706 5706 5706 5706 5706 5707 5707 5708 5708 5709 5708 5709 5709 5709 5710 5709 5709 5709 5709 5709 5708 5706 5705 5707 5708 5708 5709 5711 5712
5633 5634 5635 5635 5636 5638 5639 5639 5640 5641 5642 5644 5646 5647 5649 5651 5653 5656 5658 5658 5659 5660 5661 5664 5665 5666 5668 5668 5669 5670 5671 5672 5674 5675 5677 5675 5673 5674 5677 5679 5680 5680 5680 5681 5683 5687 5688 5689 5692 5695 5696 5697 5697 5698 5700 5701 5701 5700 5701 5703 5704 5704 5703 5703 5703 5704 5704 5706 5706 5706 5706 5706 5706 5706 5706 5705 5705 5705 5705 5704 5703 5702 5703 5704 5704 5705 5706 5708
5628 5629 5630 5631 5632 5633 5634 5635 5636 5637 5638 5640 5641 5642 5644 5646 5648 5651 5652 5653 5655 5657 5658 5660 5661 5661 5662 5663 5664 5666 5667 5668 5670 5672 5673 5670 5667 5671 5675 5675 5675 5676 5678 5679 5680 5683 5685 5686 5688 5690 5692 5693 5695 5696 5697 5697 5696 5696 5697 5698 5699 5700 5701 5700 5700 5701 5701 5702 5702 5703 5704 5703 5702 5701 5701 5701 5702 5701 5701 5700 5699 5699 5700 5700 5700 5701 5702 5703
5623 5623 5624 5625 5627 5628 5630 5631 5632 5633 5634 5635 5636 5637 5639 5641 5643 5645 5647 5648 5650 5652 5653 5654 5654 5655 5656 5657 5659 5661 5662 5663 5665 5667 5669 5667 5664 5667 5671 5671 5670 5673 5675 5675 5677 5679 5681 5682 5684 5686 5687 5690 5692 5692 5691 5692 5693 5694 5694 5694 5694 5695 5696 5696 5696 5697 5698 5698 5698 5700 5700 5699 5698 5697 5696 5698 5698 5698 5698 5697 5696 5696 5696 5696 5697 5697 5697 5698
5618 5618 5619 5621 5622 5624 5625 5626 5627 5628 5630 5631 5632 5634 5635 5637 5639 5640 5642 5644 5644 5645 5647 5648 5648 5649 5652 5653 5655 5657 5658 5659 5661 5663 5665 5664 5661 5662 5665 5666 5667 5669 5670 5671 5672 5675 5676 5678 5679 5681 5682 5685 5687 5688 5688 5689 5690 5691 5692 5692 5691 5691 5691 5690 5691 5694 5694 5693 5695 5696 5695 5694 5694 5693 5692 5693 5695 5694 5693 5693 5693 5692 5692 5693 5694 5693 5692 5693
5613 5614 5616 5617 5619 5620 5620 5620 5622 5623 5625 5626 5627 5629 5630 5632 5634 5636 5638 5638 5638 5640 5643 5644 5644 5646 5648 5648 5650 5653 5653 5655 5657 5658 5660 5661 5659 5658 5659 5661 5663 5665 5665 5665 5667 5669 5671 5673 5675 5677 5678 5680 5682 5683 5685 5685 5686 5687 5688 5689 5689 5688 5688 5687 5687 5690 5689 5689 5691 5691 5690 5691 5691 5688 5687 5688 5690 5690 5689 5688 5688 5688 5688 5688 5689 5688 5688 5688
5609 5611 5612 5612 5614 5616 5616 5617 5618 5619 5621 5621 5622 5624 5626 5627 5629 5631 5632 5633 5634 5636 5637 5638 5639 5641 5642 5641 5643 5646 5648 5650 5652 5653 5655 5658 5657 5654 5654 5655 5657 5658 5658 5660 5662 5664 5666 5669 5671 5672 5674 5675 5676 5677 5679 5680 5681 5682 5683 5684 5684 5684 5685 5684 5683 5684 5683 5684 5686 5686 5686 5687 5686 5682 5681 5683 5685 5686 5685 5684 5683 5684 5684 5684 5684 5684 5684 5684
5604 5606 5608 5608 5610 5611 5612 5613 5615 5615 5616 5617 5618 5621 5622 5623 5624 5626 5628 5629 5629 5630 5631 5632 5633 5634 5633 5633 5636 5639 5642 5643 5644 5647 5651 5653 5652 5651 5651 5651 5651 5652 5652 5655 5657 5660 5663 5664 5665 5667 5668 5670 5671 5671 5673 5674 5675 5677 5678 5679 5680 5680 5680 5679 5679 5679 5678 5678 5679 5679 5679 5679 5678 5676 5677 5679 5680 5681 5681 5680 5678 5678 5679 5679 5680 5680 5680 5679
5600 5601 5603 5604 5605 5607 5607 5609 5611 5611 5611 5613 5615 5617 5618 5618 5619 5621 5623 5623 5623 5624 5625 5627 5627 5627 5627 5629 5633 5635 5636 5637 5638 5641 5646 5648 5648 5648 5647 5647 5648 5648 5648 5651 5653 5656 5658 5658 5659 5662 5663 5664 5666 5666 5667 5668 5669 5671 5673 5674 5674 5673 5673 5674 5674 5674 5673 5673 5673 5673 5672 5670 5670 5670 5672 5674 5676 5676 5676 5675 5674 5673 5673 5673 5674 5674 5675 5675
5595 5597 5598 5599 5600 5601 5602 5604 5606 5607 5608 5609 5611 5612 5613 5613 5613 5615 5617 5617 5617 5618 5619 5620 5621 5622 5624 5627 5630 5632 5631 5632 5635 5637 5641 5643 5644 5644 5644 5644 5644 5644 5644 5646 5647 5649 5651 5652 5653 5656 5658 5659 5660 5661 5661 5661 5662 5665 5666 5665 5666 5667 5668 5670 5669 5667 5666 5666 5667 5667 5666 5662 5662 5665 5666 5668 5671 5671 5671 5671 5669 5668 5668 5667 5666 5668 5669 5669
5592 5593 5594 5594 5595 5596 5598 5601 5602 5603 5604 5605 5607 5608 5608 5608 5609 5612 5613 5613 5613 5614 5614 5617 5618 5620 5622 5625 5627 5628 5628 5629 5631 5633 5636 5639 5640 5641 5641 5641 5641 5641 5641 5641 5641 5643 5645 5647 5648 5650 5652 5653 5654 5655 5655 5655 5657 5659 5658 5658 5661 5663 5664 5665 5663 5659 5658 5659 5661 5661 5658 5655 5657 5660 5660 5662 5665 5665 5666 5665 5662 5661 5662 5661 5661 5663 5663 5662